Regional Weather Roundup
Issued by NWS

Home | Current Version | Previous Version | Graphics & Text | Print | Product List | Glossary On
Versions: 1 2 3 4 5 6 7 8 9 10 11 12 13 14 15 16 17 18 19 20 21 22 23 24 25 26 27 28 29 30 31 32 33 34 35 36 37 38 39 40 41 42 43 44 45 46 47 48 49 50
000
ASUS43 KDMX 301307
RWRIA

WEATHER ROUNDUP FOR IOWA
NATIONAL WEATHER SERVICE DES MOINES IA
800 AM CDT TUE SEP 30 2014

NOTE: "FAIR" INDICATES FEW OR NO CLOUDS BELOW 12,000 FEET WITH NO
SIGNIFICANT WEATHER AND/OR OBSTRUCTIONS TO VISIBILITY.

* - THESE STATIONS ARE NOT NWS STATIONS...THUS NOT UNDER NWS
QUALITY CONTROL.  THEY ALSO DO NOT REPORT WEATHER SUCH
AS PRECIPITATION OR FOG.

IAZ001>003-012>014-020>022-031>034-043>046-301400-
   NORTHWEST IOWA

CITY           SKY/WX    TMP DP  RH WIND       PRES   REMARKS
CARROLL *      FOG       55  55 100 SE9G15    29.95F VSB 0
CHEROKEE *     CLOUDY    54  54 100 SE10      29.92S
DENISON *      CLOUDY    57  57 100 E7G16     29.90F FOG
LE MARS *      CLOUDY    55  54  94 SE8G15    29.89S
ORANGE CITY *  CLOUDY    55  52  88 E12G17    29.89S
SHELDON *      CLOUDY    52  52 100 SE15G23   29.90F
SIOUX CITY     CLOUDY    59  56  89 SE10      29.87S
SPENCER        CLOUDY    51  49  92 E14       29.95S
STORM LAKE *   FOG       52  52 100 SE14G21   29.94F VSB 0
$$

IAZ055>058-069>071-079>083-090>094-301400-
   SOUTHWEST IOWA

CITY           SKY/WX    TMP DP  RH WIND       PRES   REMARKS
ATLANTIC *     CLOUDY    61  59  94 E8        29.92F FOG
AUDUBON *      HAZE      57  54  88 E8        29.95S VSB 3/4
CLARINDA *     CLEAR     59  57  94 CALM      29.94S
COUNCIL BLFS * PTCLDY    61  61 100 SE7       29.88F
CRESTON *      FOG       59  59 100 SE9       29.96S VSB 0
HARLAN  *      CLOUDY    59  59 100 SE8       29.94F FOG
LAMONI         FOG       60  59  96 E7        29.95S VSB 1/4
RED OAK *      CLEAR     63  59  88 E5        29.91F FOG
SHENANDOAH *   CLEAR     61  57  88 E7        29.91S
$$

IAZ047>049-059>061-072>074-084-301400-
   CENTRAL IOWA

CITY           SKY/WX    TMP DP  RH WIND       PRES   REMARKS
AMES           CLOUDY    56  54  93 E9        29.98S
ANKENY *       CLOUDY    57  55  94 E7G14     29.98S FOG
CHARITON *     FOG       59  59 100 E12       29.97S VSB 0
DES MOINES     CLOUDY    59  56  89 VRB3      29.97S FOG
GRINNELL*      CLOUDY    54  52  94 E9        30.01R
KNOXVILLE *    FOG       57  55  94 E8G14     29.97S VSB 1
MARSHALLTOWN   CLOUDY    54  52  93 E12       30.00R
PELLA *        CLOUDY    57  55  94 E6        30.00S
PERRY *        CLOUDY    57  55  94 SE10      29.97S FOG
$$

IAZ004>006-015-016-023>025-035-036-301400-
   NORTH CENTRAL IOWA

CITY           SKY/WX    TMP DP  RH WIND       PRES   REMARKS
ALGONA *       CLOUDY    54  52  94 E9G18     29.98F
CLARION *      CLOUDY    52  50  93 E12G18    29.99S
ESTHERVILLE    FOG       49  49 100 SE12      29.97F VSB 3/4
FORT DODGE *   CLOUDY    54  48  82 E9        29.98S
MASON CITY     CLOUDY    48  47  96 SE8       30.04R FOG
FOREST CITY *  CLOUDY    48  48 100 E10       30.01S
IOWA FALLS *   FOG       54  52  94 E12       30.01S VSB 1
$$

IAZ007>011-017>019-026>030-037>042-050>054-066-301400-
   NORTHEAST IOWA

CITY           SKY/WX    TMP DP  RH WIND       PRES   REMARKS
CEDAR RAPIDS   CLOUDY    52  50  93 E9        30.02R
CHARLES CITY * CLOUDY    48  46  93 E9        30.04S
CLINTON *      CLOUDY    50  46  87 E10       30.08R
DECORAH *      CLOUDY    46  45  93 E9        30.05S
MONTICELLO *   CLOUDY    50  48  93 E7G14     30.05R
OELWEIN *      CLOUDY    50  48  93 E10       30.04S
WATERLOO       CLOUDY    52  49  89 E12       30.02R
$$

IAZ064-065-067-068-078-301400-
   EAST CENTRAL IOWA

CITY           SKY/WX    TMP DP  RH WIND       PRES   REMARKS
IOWA CITY      CLOUDY    54  51  90 E8        30.04R
MT. PLEASANT * CLOUDY    55  54  94 E9G17     30.01R FOG
MUSCATINE *    CLOUDY    57  52  82 E8        30.03R
$$

IAZ062-063-075>077-085>089-095>099-301400-
   SOUTHEAST IOWA

CITY           SKY/WX    TMP DP  RH WIND       PRES   REMARKS
BURLINGTON     CLOUDY    57  55  93 NE8       30.00R FOG
FAIRFIELD *    CLOUDY    57  55  94 E10       30.00S FOG
FORT MADISON *   N/A     57  55  94 E5        30.01R FOG
KEOKUK *       FOG       57  57 100 NE8       29.98S VSB 1/2
OSKALOOSA *    CLOUDY    55  54  94 E7        30.00S FOG
CENTERVILLE *  FOG       59  59 100 E7        29.99S VSB 1/4
OTTUMWA        CLOUDY    56  55  97 E10       29.98F FOG
WASHINGTON *   CLOUDY    55  55 100 E12       30.01S FOG
$$

ABBREVIATIONS USED IN REMARKS
   TC - TEMPERATURES IN CELSIUS
  WCI - WIND CHILL INDEX
   HX - HEAT INDEX
  VSB - VISIBILITY
$$




USA.gov is the U.S. government's official web portal to all federal, state and local government web resources and services.